Temp
12 12 12 12 12 11 12 12 12 11 11 11 11 11 11 11 10 10 10 10 10 10 10 10 10 10 11 11 11 11 10 10 10 10 10 10 9 9 9 10 9 9 9
12 12 12 12 11 11 11 11 11 11 11 11 10 11 11 11 10 10 10 10 10 10 10 10 10 10 11 11 10 10 10 10 10 10 9 9 9 9 9 9 9 9 9
12 12 11 11 11 11 11 11 11 11 11 11 10 10 10 10 10 10 10 10 10 10 10 10 10 10 10 10 10 10 9 10 9 9 9 9 9 9 9 9 9 9 9
11 11 11 11 11 11 11 11 11 11 11 11 10 10 10 10 10 10 10 10 10 10 10 10 10 10 10 10 9 9 9 9 9 9 9 8 9 9 9 9 9 9 8
11 11 11 11 11 11 11 11 11 11 10 10 10 10 10 10 9 9 9 9 10 10 10 10 10 9 9 9 9 9 9 9 8 8 8 9 9 8 8 8 8 8 8
11 11 11 11 11 10 11 10 10 10 10 10 10 10 10 10 9 9 9 9 9 9 9 9 9 9 9 8 8 8 8 8 8 8 8 8 8 8 8 7 7 8 7
11 11 11 11 10 10 10 10 10 10 10 10 10 9 9 9 9 9 9 9 9 9 9 9 8 8 8 8 8 8 8 8 8 8 7 8 7 7 7 7 7 7 7
11 10 10 10 10 10 10 10 10 10 10 10 10 9 9 9 9 9 9 9 9 9 9 9 8 8 8 8 8 8 7 7 8 8 7 7 7 7 7 7 7 7 7
10 10 10 10 10 10 10 10 10 10 10 9 9 9 9 9 9 9 9 9 8 8 8 8 8 8 8 8 7 7 7 7 8 7 7 7 7 7 7 7 7 7 7
10 10 10 10 10 10 10 10 9 9 9 9 9 9 9 9 9 9 8 8 8 8 8 8 8 7 7 7 7 7 7 7 7 7 7 7 7 7 7 7 6 7 6
9 10 10 10 10 9 9 9 9 9 9 9 9 9 9 9 8 8 8 8 8 8 8 8 8 7 7 7 7 7 7 7 7 7 6 7 7 7 7 6 6 6 6
9 9 9 9 9 9 9 9 9 9 9 9 9 9 9 8 8 8 8 8 8 8 7 7 7 7 7 7 6 7 7 7 6 6 6 6 6 6 7 6 6 6 6
8 9 9 9 9 9 9 9 9 9 9 9 9 8 9 8 8 8 8 8 8 8 7 7 7 7 7 7 6 6 6 6 6 6 6 6 6 6 6 6 6 6 6
8 8 9 9 9 9 9 9 8 8 8 8 8 8 8 8 8 8 8 8 8 7 7 7 7 7 6 7 6 6 6 6 6 6 6 5 6 6 6 6 6 6 6
8 8 8 8 8 9 9 8 9 8 8 8 8 8 8 8 8 8 7 7 7 7 7 7 7 7 7 6 6 6 6 6 6 6 6 6 6 6 6 6 6 6 6
7 7 8 8 8 8 8 8 8 8 8 8 8 8 7 7 7 7 7 7 7 7 7 7 7 7 6 6 6 5 5 5 6 5 6 6 6 5 5 5 5 5 5
6 6 7 7 7 8 8 8 7 7 7 7 7 7 7 7 7 7 7 7 6 6 6 7 7 6 6 6 5 5 5 5 6 5 5 5 5 5 5 5 5 5 5
7 6 5 7 7 7 7 7 7 7 7 7 7 7 7 7 6 6 6 6 6 6 6 6 6 6 6 6 5 5 5 5 5 5 5 5 5 5 5 4 5 4 4
6 6 5 5 6 7 7 7 7 7 6 6 6 6 6 6 6 6 6 6 6 5 5 6 6 5 5 5 5 4 4 4 5 5 5 5 4 5 4 4 4 4 4
6 6 6 5 4 6 6 7 6 5 6 6 6 6 6 6 6 6 5 5 5 5 5 5 5 5 5 4 4 4 4 4 4 4 4 4 4 4 4 4 4 4 4
7 6 5 5 5 5 6 6 6 6 6 6 5 6 6 6 6 6 5 5 4 4 4 4 4 4 4 4 3 4 4 4 3 3 4 4 4 4 3 3 3 3 3
7 6 5 4 4 4 4 5 5 6 5 5 5 5 6 6 6 5 5 4 4 4 4 4 4 4 3 3 3 3 3 3 3 3 3 3 3 3 3 3 3 3 3
6 5 5 4 4 4 4 4 4 5 5 5 5 5 6 5 5 4 4 4 4 4 3 3 3 3 2 2 3 3 3 3 3 3 3 3 3 3 3 3 3 2 2
5 5 4 4 4 4 3 3 4 4 5 5 6 5 5 5 5 4 4 4 4 3 3 2 2 2 2 2 2 2 2 2 2 2 2 2 2 2 2 2 2 2 2
5 4 4 3 3 4 4 3 3 3 4 4 5 4 5 4 5 4 4 4 3 3 2 2 2 2 2 2 2 2 2 2 2 2 2 2 1 1 1 1 1 1 1
4 3 3 4 4 3 3 3 3 3 3 4 4 4 4 4 4 4 4 4 3 2 2 2 2 2 1 2 2 2 2 1 2 1 2 2 2 1 1 1 0 0 0
Height
3165 3167 3169 3170 3171 3171 3171 3170 3169 3169 3168 3167 3166 3165 3165 3164 3164 3163 3162 3161 3160 3161 3162 3163 3163 3164 3165 3166 3166 3167 3167 3168 3169 3169 3169 3169 3169 3169 3168 3168 3168 3167 3167
3163 3164 3167 3169 3169 3170 3170 3170 3169 3168 3167 3167 3166 3165 3164 3163 3163 3163 3162 3161 3161 3161 3161 3162 3162 3163 3164 3165 3166 3166 3166 3167 3167 3168 3168 3168 3168 3167 3167 3166 3166 3166 3165
3161 3163 3165 3167 3168 3168 3168 3168 3168 3168 3167 3166 3166 3165 3164 3163 3162 3162 3162 3161 3161 3161 3161 3162 3163 3163 3163 3164 3164 3165 3165 3166 3167 3167 3167 3167 3166 3166 3165 3165 3164 3163 3163
3159 3162 3164 3166 3167 3167 3168 3168 3167 3167 3167 3166 3166 3165 3164 3163 3162 3162 3161 3161 3162 3161 3162 3162 3163 3163 3164 3164 3165 3165 3165 3165 3165 3165 3165 3165 3165 3164 3164 3163 3162 3161 3161
3159 3160 3163 3164 3166 3166 3167 3167 3167 3167 3166 3166 3165 3165 3164 3163 3162 3162 3162 3162 3162 3162 3163 3163 3163 3164 3164 3164 3164 3164 3164 3164 3163 3163 3163 3162 3162 3162 3162 3161 3160 3159 3159
3158 3160 3161 3163 3165 3165 3166 3166 3166 3166 3166 3165 3165 3164 3164 3163 3163 3162 3162 3162 3162 3162 3162 3163 3163 3163 3162 3162 3162 3162 3162 3162 3162 3162 3161 3161 3161 3160 3160 3159 3158 3158 3157
3156 3158 3160 3161 3163 3164 3164 3165 3165 3165 3165 3165 3164 3164 3164 3163 3163 3162 3162 3161 3162 3161 3162 3162 3161 3161 3161 3161 3161 3160 3160 3160 3161 3160 3160 3160 3159 3158 3158 3157 3156 3156 3156
3155 3156 3158 3159 3160 3162 3163 3164 3164 3164 3164 3163 3163 3163 3163 3163 3163 3162 3162 3162 3162 3161 3161 3161 3160 3160 3160 3160 3160 3160 3159 3159 3158 3159 3159 3158 3157 3157 3156 3155 3154 3154 3154
3153 3154 3156 3157 3158 3159 3161 3162 3162 3163 3163 3162 3162 3162 3162 3162 3162 3162 3161 3161 3161 3161 3160 3160 3160 3160 3160 3160 3159 3159 3158 3158 3158 3157 3156 3156 3155 3155 3153 3153 3152 3152 3151
3149 3151 3152 3154 3155 3156 3158 3159 3160 3160 3161 3161 3161 3161 3161 3161 3161 3161 3161 3160 3160 3159 3159 3159 3160 3159 3159 3159 3158 3158 3157 3156 3156 3155 3154 3153 3152 3152 3151 3150 3150 3149 3148
3146 3148 3149 3151 3152 3154 3155 3156 3157 3158 3159 3159 3159 3160 3160 3160 3160 3160 3160 3159 3159 3159 3159 3158 3158 3158 3158 3158 3156 3156 3155 3154 3154 3153 3151 3150 3149 3149 3148 3148 3146 3145 3144
3143 3144 3146 3147 3148 3150 3151 3153 3154 3155 3156 3157 3157 3157 3158 3158 3158 3159 3159 3158 3158 3158 3158 3158 3157 3156 3156 3155 3154 3153 3152 3151 3151 3150 3149 3147 3146 3145 3145 3145 3142 3141 3140
3137 3141 3143 3144 3145 3147 3148 3149 3150 3151 3152 3153 3154 3155 3156 3156 3156 3157 3157 3157 3157 3156 3156 3156 3155 3154 3154 3153 3152 3151 3149 3148 3148 3148 3147 3145 3143 3142 3141 3140 3138 3136 3136
3133 3134 3138 3139 3140 3143 3145 3145 3146 3147 3148 3150 3151 3151 3153 3153 3154 3154 3155 3154 3154 3154 3154 3154 3153 3151 3150 3150 3149 3148 3147 3145 3145 3145 3143 3141 3139 3138 3137 3135 3134 3132 3131
3128 3130 3128 3134 3136 3138 3140 3140 3142 3143 3144 3146 3146 3147 3148 3150 3150 3151 3151 3151 3151 3151 3151 3151 3150 3148 3147 3146 3146 3145 3144 3142 3142 3142 3140 3138 3136 3134 3132 3131 3130 3128 3128
3122 3123 3125 3124 3130 3132 3134 3135 3136 3137 3139 3141 3144 3143 3143 3145 3146 3147 3148 3148 3148 3147 3147 3146 3146 3145 3144 3142 3143 3142 3142 3140 3139 3138 3137 3135 3132 3130 3129 3127 3126 3124 3123
3118 3118 3118 3120 3120 3126 3129 3129 3130 3132 3135 3136 3138 3140 3140 3141 3142 3144 3144 3144 3143 3143 3143 3142 3141 3141 3141 3139 3139 3139 3138 3137 3135 3135 3133 3131 3129 3127 3125 3123 3122 3121 3119
3112 3114 3114 3116 3116 3118 3123 3126 3125 3128 3130 3131 3133 3135 3136 3137 3139 3140 3140 3140 3140 3139 3139 3138 3138 3136 3137 3137 3135 3135 3133 3132 3131 3130 3129 3127 3125 3123 3121 3119 3118 3116 3114
3104 3109 3109 3110 3111 3113 3117 3119 3119 3122 3123 3126 3126 3129 3130 3133 3135 3136 3135 3135 3135 3135 3135 3134 3134 3133 3133 3132 3132 3131 3130 3129 3127 3125 3124 3123 3121 3119 3117 3115 3113 3110 3108
3097 3100 3104 3105 3105 3106 3109 3116 3116 3113 3117 3121 3120 3124 3126 3128 3129 3129 3129 3130 3131 3131 3131 3130 3130 3129 3129 3128 3127 3127 3126 3125 3123 3121 3119 3118 3115 3113 3111 3109 3106 3103 3101
3086 3090 3094 3097 3099 3099 3099 3104 3110 3110 3110 3115 3114 3117 3121 3123 3125 3124 3124 3125 3126 3126 3126 3125 3125 3125 3125 3124 3122 3122 3122 3120 3118 3117 3115 3113 3111 3109 3106 3102 3099 3096 3094
3076 3080 3085 3089 3093 3093 3093 3095 3100 3105 3106 3109 3109 3110 3113 3117 3119 3118 3119 3120 3120 3121 3121 3121 3121 3120 3118 3119 3118 3117 3117 3117 3114 3112 3110 3107 3105 3102 3099 3096 3093 3089 3085
3066 3071 3075 3080 3084 3087 3088 3087 3088 3095 3098 3100 3102 3105 3107 3111 3112 3113 3113 3115 3115 3115 3115 3116 3116 3115 3114 3114 3114 3114 3111 3110 3108 3107 3104 3101 3098 3095 3092 3088 3084 3081 3077
3057 3061 3065 3070 3074 3077 3079 3080 3079 3083 3090 3094 3097 3100 3102 3104 3106 3107 3108 3109 3109 3109 3109 3110 3111 3110 3109 3109 3109 3107 3105 3104 3102 3100 3098 3094 3091 3088 3084 3081 3076 3071 3066
3048 3051 3054 3059 3064 3066 3069 3071 3073 3074 3081 3086 3090 3092 3095 3098 3100 3101 3102 3103 3103 3103 3104 3105 3105 3105 3104 3104 3103 3101 3099 3097 3095 3093 3091 3087 3084 3079 3075 3071 3067 3061 3056
3039 3041 3045 3048 3051 3055 3058 3059 3061 3065 3071 3077 3081 3085 3089 3091 3094 3095 3096 3097 3096 3097 3098 3099 3099 3099 3098 3098 3097 3095 3093 3090 3087 3084 3081 3079 3076 3075 3069 3064 3057 3052 3047
Wind_Speed
9 5 2 2 4 7 9 9 8 7 5 5 4 3 3 4 4 4 4 3 2 3 5 6 6 6 7 7 6 8 7 8 10 10 9 8 8 9 9 10 9 9 10
11 7 3 3 1 4 8 9 9 8 6 5 5 5 5 4 4 4 4 3 1 1 2 2 3 6 5 3 4 6 6 7 8 8 7 8 9 10 10 10 11 11 11
9 8 6 6 2 3 6 9 10 9 7 7 6 6 6 6 5 5 5 5 3 3 2 0 2 2 2 2 4 4 5 7 7 8 8 8 10 11 12 11 12 12 11
8 8 8 6 2 3 7 7 6 4 5 6 7 7 7 7 7 6 5 5 4 4 3 2 2 2 2 3 3 4 5 6 7 7 8 7 10 11 11 11 11 11 10
10 10 10 8 4 2 5 6 6 5 4 5 6 7 7 6 6 6 6 6 4 3 2 3 3 4 4 3 3 4 5 5 6 7 9 9 9 9 11 10 11 11 11
11 12 11 8 4 7 5 8 6 6 6 6 6 6 7 7 6 6 5 5 4 3 3 3 3 3 2 3 4 5 5 5 6 7 8 9 9 9 10 9 9 10 10
13 13 12 9 7 7 7 9 7 8 7 7 7 7 7 7 7 6 6 5 4 3 3 3 3 3 4 4 5 6 7 7 7 7 5 7 8 9 10 10 11 11 11
16 15 13 12 10 9 10 10 7 9 8 7 6 7 8 7 7 6 6 6 6 5 4 2 2 2 3 3 3 4 6 6 7 8 7 7 9 10 10 11 12 12 13
17 16 15 15 14 14 13 13 11 10 9 8 6 6 8 8 7 6 5 5 6 6 5 4 3 1 2 3 4 6 7 8 8 8 8 8 10 11 13 14 14 14 14
18 17 18 17 17 17 16 15 14 12 11 9 7 6 7 8 8 7 6 5 5 5 5 5 5 5 5 5 6 8 9 10 9 10 10 11 13 13 13 14 15 14 14
21 19 18 19 19 18 18 17 16 15 14 12 10 9 8 9 7 6 6 6 6 7 7 6 7 7 7 7 10 10 11 11 10 11 13 13 14 14 14 15 15 16 16
23 23 22 21 20 19 19 19 19 18 17 16 14 12 10 8 7 6 6 6 7 8 8 9 9 9 9 9 11 12 12 13 12 12 14 15 16 17 17 17 18 18 19
22 25 24 24 24 22 21 20 20 20 19 18 17 16 13 10 8 8 7 7 8 8 9 10 11 12 12 12 12 12 13 14 13 13 14 16 19 20 19 18 19 19 19
26 25 25 26 26 24 23 23 21 21 21 20 19 19 15 14 12 11 9 9 9 9 11 12 13 15 15 15 15 14 13 15 14 15 16 18 19 20 20 19 18 18 17
32 31 31 29 27 27 25 25 25 24 23 20 20 20 18 16 15 13 12 12 11 11 11 14 16 16 15 14 14 14 15 17 17 16 17 18 19 19 19 18 18 18 18
31 35 34 33 29 27 27 26 25 24 22 22 21 20 18 16 15 13 13 14 14 13 15 15 17 20 18 16 14 14 15 17 18 17 18 17 18 19 19 19 19 19 19
33 33 37 36 33 28 26 26 24 22 22 21 20 19 18 16 15 14 15 16 16 17 19 21 16 19 21 17 15 15 15 17 19 17 18 18 18 19 19 20 20 21 21
36 37 38 39 39 33 29 27 26 25 25 23 23 21 20 19 17 17 18 18 18 18 19 21 20 17 19 20 17 15 15 16 18 19 18 18 18 19 21 22 22 23 25
43 40 38 38 42 39 34 31 30 29 28 25 27 24 25 24 22 22 23 22 20 19 20 19 20 20 20 19 17 16 15 15 16 17 18 19 20 20 21 23 24 26 27
45 46 45 42 43 44 41 35 33 32 28 27 30 27 27 24 24 26 23 22 20 20 20 19 20 20 20 19 17 17 16 15 16 18 20 21 23 24 26 25 26 28 30
42 47 45 46 44 44 46 44 38 36 34 30 33 30 28 25 21 24 24 23 21 21 22 19 18 18 21 21 18 17 17 16 17 19 21 23 24 25 26 28 29 30 32
35 41 49 47 44 45 48 48 43 39 37 34 35 31 29 25 22 22 26 23 22 22 23 21 20 23 23 24 20 20 20 18 20 21 23 26 27 28 30 31 31 33 34
38 38 44 48 45 42 44 48 49 45 41 39 38 33 30 25 24 22 26 23 23 23 24 23 23 24 24 24 25 23 21 22 24 25 26 28 30 32 33 34 35 36 37
42 41 43 48 52 48 45 47 53 52 47 44 41 36 32 29 26 24 25 24 25 25 27 26 25 23 24 23 24 23 22 24 26 28 29 32 33 35 36 37 37 39 40
31 42 43 44 55 56 54 50 51 54 48 44 41 39 36 31 29 26 27 27 28 27 28 27 26 25 25 25 25 25 25 27 29 31 32 34 36 38 39 39 40 41 42
22 30 38 40 42 48 61 59 57 60 55 48 45 42 40 36 33 29 29 30 32 30 28 27 32 28 28 28 26 26 28 30 33 36 38 39 40 38 39 38 40 41 43
Wind_Direction
169 154 135 123 42 26 22 21 17 21 26 30 32 28 10 353 348 324 323 313 261 242 232 223 218 232 237 243 242 244 242 247 249 255 261 272 284 293 295 297 304 301 302
169 163 186 215 311 22 14 19 15 10 16 28 35 30 22 24 24 5 15 27 32 220 177 194 212 233 253 255 231 239 244 242 246 253 264 275 284 290 291 294 298 300 303
174 179 197 198 187 8 14 8 359 355 358 10 18 18 23 23 30 30 23 24 32 36 47 49 248 270 321 264 200 213 233 244 255 266 274 292 290 294 294 297 299 302 305
189 196 198 194 196 12 352 353 347 349 359 6 13 19 21 20 23 29 31 28 13 16 3 337 302 290 260 226 206 227 241 253 267 278 282 281 285 287 293 298 301 305 306
197 200 204 209 216 316 333 337 324 331 350 3 11 15 17 22 27 24 25 23 14 353 319 293 287 278 269 284 278 273 275 280 288 291 292 294 293 294 297 300 301 304 303
206 207 211 215 258 303 307 319 307 316 331 344 357 11 15 19 20 23 23 15 357 350 332 306 291 288 305 320 305 304 306 308 298 293 293 294 298 301 302 309 311 312 311
211 210 208 219 265 273 256 296 303 305 309 325 340 352 5 13 17 14 11 10 358 346 323 311 316 323 321 310 301 300 295 290 292 290 308 309 307 305 305 308 309 307 304
200 204 218 245 261 261 253 261 279 304 294 304 316 337 349 358 1 8 9 7 4 4 3 348 328 303 286 280 287 285 286 295 297 304 309 310 309 306 308 307 306 306 305
215 223 238 247 250 257 263 250 253 270 284 294 307 330 336 338 339 345 353 2 7 9 8 1 359 334 306 290 281 281 285 288 294 306 319 309 303 304 304 306 305 306 302
232 235 238 242 242 250 253 250 252 257 266 275 281 303 322 321 324 326 327 337 346 359 358 346 326 311 301 293 286 283 286 290 305 311 309 305 306 307 310 308 311 307 302
238 238 239 242 249 251 253 252 255 261 265 267 269 282 306 314 316 320 321 325 334 339 336 329 319 314 299 290 284 286 288 292 303 306 307 308 308 307 308 308 304 301 298
243 242 239 243 248 248 251 255 258 261 263 266 268 271 282 293 298 311 318 322 324 326 325 317 314 301 287 280 278 287 290 296 302 307 311 309 308 307 306 306 300 297 295
254 245 245 246 245 249 252 254 257 258 260 263 266 268 272 277 279 287 302 307 309 320 322 319 305 298 295 291 285 282 289 295 303 309 308 306 306 305 306 301 297 295 294
249 256 246 247 249 249 250 253 255 257 259 261 264 266 269 270 270 275 283 290 305 313 318 313 308 304 301 299 296 298 297 298 305 307 308 306 303 303 303 300 296 294 293
248 251 255 249 251 258 259 258 257 256 257 256 260 265 268 270 270 274 277 286 294 304 316 318 310 305 298 292 291 293 297 299 304 307 307 305 304 302 302 300 298 297 295
245 251 253 256 253 256 259 261 258 257 256 255 253 258 261 263 271 274 277 279 284 291 304 311 318 305 295 291 287 286 290 295 300 306 307 307 303 302 302 300 297 295 294
227 239 253 258 259 256 256 260 257 259 253 254 257 256 263 263 265 269 272 282 289 294 300 299 301 301 292 285 282 286 291 296 300 306 307 306 304 303 300 298 296 294 292
239 229 239 249 256 255 254 255 254 256 260 261 263 263 259 261 266 273 279 283 289 293 290 288 291 281 280 279 277 282 287 296 302 306 309 309 308 304 303 299 297 294 292
244 239 232 241 249 252 250 255 257 255 258 259 264 260 262 267 271 277 276 281 286 287 286 283 280 277 273 269 274 278 285 294 299 306 311 314 311 309 304 301 298 295 293
236 241 236 233 243 253 252 245 249 251 247 253 259 258 265 270 274 272 271 276 282 284 280 279 277 275 272 267 269 276 283 291 301 308 314 316 316 315 309 305 300 297 295
237 230 233 234 240 244 251 251 250 249 254 253 259 264 264 268 275 270 270 276 278 281 277 272 269 274 274 269 270 275 282 293 304 308 312 314 314 312 309 306 302 297 296
242 236 230 231 235 241 250 256 252 247 249 253 256 259 267 270 279 264 266 273 275 279 275 270 272 282 270 269 275 283 284 290 298 305 309 311 313 314 310 307 302 300 297
241 237 234 231 230 237 244 249 252 248 244 244 251 257 266 269 277 264 260 267 274 271 268 272 276 283 274 266 270 273 284 291 298 304 308 310 312 312 311 308 303 299 297
240 237 231 230 229 232 234 239 250 253 251 251 256 258 261 266 273 263 260 262 268 266 268 274 278 279 271 264 267 277 287 294 301 305 307 310 310 310 309 307 303 300 299
243 241 239 231 230 231 236 238 242 249 250 248 251 255 259 265 274 267 260 261 264 263 265 270 275 277 275 264 270 280 288 294 300 303 305 308 309 309 308 306 304 301 298
238 241 241 243 233 230 234 240 242 246 248 247 248 251 257 264 271 267 263 260 260 263 262 269 269 274 273 267 272 281 289 296 301 304 305 305 305 305 304 302 300 298 297